{"data":{"norad_id":64413,"intl_designator":"2025-129B","name":"STARLINK-34275","alt_names":[],"object_type":"PAYLOAD","status":"ACTIVE","operator":null,"country":"US","launch_date":"2025-06-17","launch_site_code":"AFWTR","launch_vehicle":null,"mission":null,"orbit_class":"UNKNOWN","rcs_meters":null,"size_class":null,"mass_kg":null,"dimensions":null,"purposes":["comms"],"wikipedia_slug":null,"has_3d_model":false,"image_url":null,"decayed_at":null,"tle_current":{"epoch":"2026-09-20T20:18:25.553376Z","epoch_age_seconds":104479,"freshness":"FRESH","line1":"1 64413U 25129B   26263.84612909  .00008110  00000+0  28625-3 0  9990","line2":"2 64413  70.0006 299.8549 0003450 276.5039  83.5744 15.29578576 70589","mean_motion":15.29578576,"eccentricity":0.000345,"inclination_deg":70.0006,"raan_deg":299.8549,"arg_perigee_deg":276.5039,"mean_anomaly_deg":83.5744,"bstar":0.00028625,"rev_number":7058,"period_min":94.143578015177,"perigee_km":474.70611081176,"apogee_km":479.43620444053,"semimajor_km":6855.2081576261,"source":"CELESTRAK","updated_at":"2026-09-21T09:00:35.345739Z"}}}